Flag for Austria Weather past 2 weeks in Hollabrunn, Lower Austria, Austria

Now
59 °F

Cool.


Feels Like: 59 °F
Forecast: 53 / 66 °F
Wind: 1 mph from Northeast

Location: Retz

Current Time: Oct 1, 2014 at 9:31:16 AM

Latest Report: Oct 1, 2014 at 8:00 AM


Visibility: N/A

Pressure: 30.26 "Hg

Humidity: 98%

Dew point: 58 °F

Location of HollabrunnLocation

Historic Weather in Hollabrunn — Graph

°F

Hollabrunn temperature yesterday

Maximum temperature yesterday: 57 °F (at 5:00 PM)
Minimum temperature yesterday: 46 °F (at 3:00 AM)
Average temperature yesterday: 52 °F

Past Weeks' High & Low Weather Summary

 TemperatureHumidityPressure
High75 °F (Sep 20, 2:00 PM)100% (Sep 30, 7:00 AM)30.40 "Hg (Sep 30, 7:00 AM)
Low41 °F (Sep 24, 5:00 AM)55% (Sep 18, 2:00 PM)29.79 "Hg (Sep 22, 2:00 AM)
Average57 °F82%30.09 "Hg
* Reported Sep 16 8:00 AM — Oct 1 8:00 AM, Hollabrunn, Weather by CustomWeather, © 2014

Note: Actual official high and low records may vary slightly from our data, if they occured in-between our weather recording intervals... More about our weather records

Advertising

Hollabrunn weather history for previous 24 hours

 ConditionsComfort  
Time TempWeatherWind HumidityBarometerVisibility
8:00 AM
Oct 1
59 °FCool.1 mph98%30.26 "HgN/A
7:00 AM59 °FFog.2 mph96%30.26 "HgN/A
6:00 AM59 °FFog.3 mph97%30.26 "HgN/A
5:00 AM60 °FCool.6 mph94%30.26 "HgN/A
4:00 AM58 °FCool.1 mph96%30.26 "HgN/A
3:00 AM57 °FCool.1 mph96%30.26 "HgN/A
2:00 AM58 °FCool.1 mph94%30.26 "HgN/A
1:00 AM57 °FCool.No wind97%30.26 "HgN/A
12:00 AM55 °FCool.2 mph99%30.27 "HgN/A
11:00 PM
Sep 30
55 °FCool.No wind98%30.28 "HgN/A
10:00 PM55 °FCool.2 mph99%30.28 "HgN/A
9:00 PM55 °FFog.1 mph98%30.27 "HgN/A
8:00 PM55 °FCool.1 mph98%30.27 "HgN/A
7:00 PM56 °FCool.No wind97%30.27 "HgN/A
6:00 PM56 °FCool.1 mph95%30.27 "HgN/A
5:00 PM57 °FCool.1 mph91%30.27 "HgN/A
4:00 PM56 °FCool.No wind91%30.28 "HgN/A
3:00 PM55 °FCool.1 mph96%30.29 "HgN/A
2:00 PM54 °FCool.2 mph98%30.29 "HgN/A
1:00 PM54 °FCool.No wind100%30.30 "HgN/A
12:00 PM53 °FCool.1 mph99%30.30 "HgN/A
11:00 AM52 °FCool.1 mph99%30.31 "HgN/A
10:00 AM51 °FCool.1 mph100%30.32 "HgN/A
9:00 AM50 °FCool.2 mph99%30.31 "HgN/A
Weather by CustomWeather, © 2014

See weather overviewHow to use our weather pages